Regional Weather Roundup
Issued by NWS

Home | Current Version | Previous Version | Text Only | Print | Product List | Glossary Off
Versions: 1 2 3 4 5 6 7 8 9 10 11 12 13 14 15 16 17 18 19 20 21 22 23 24 25 26 27 28 29 30 31 32 33 34 35 36 37 38 39 40 41 42 43 44 45 46 47 48 49 50

000
ASUS43 KLOT 180400
RWRIL

ILLINOIS REGIONAL WEATHER ROUNDUP
NATIONAL WEATHER SERVICE CHICAGO/ROMEOVILLE IL
1100 PM CDT WED SEP 17 2014

NOTE: "FAIR" INDICATES FEW OR NO CLOUDS BELOW 12,000 FEET WITH NO
SIGNIFICANT WEATHER AND/OR OBSTRUCTIONS TO VISIBILITY.

* THESE STATIONS ARE NOT UNDER NWS QUALITY CONTROL. THEY ALSO MAY NOT
  REPORT WEATHER SUCH AS PRECIPITATION OR FOG.

ILZ001-002-007-009-015-016-024-180500-
NORTHWEST ILLINOIS

CITY           SKY/WX    TMP DP  RH WIND       PRES   REMARKS
MOLINE         CLEAR     53  50  89 CALM      30.02S
STERLING*      CLEAR     52  48  87 CALM      30.03S
$$

ILZ003-004-008-010-011-017-018-180500-
NORTH CENTRAL ILLINOIS

CITY           SKY/WX    TMP DP  RH WIND       PRES   REMARKS
ROCKFORD       CLEAR     51  49  92 CALM      30.06R
FREEPORT*      CLEAR     50  48  92 CALM      30.06R
ROCHELLE*      CLEAR     51  48  92 CALM      30.04S
$$

ILZ005-006-012>014-019>023-180500-
NORTHEAST ILLINOIS

CITY           SKY/WX    TMP DP  RH WIND       PRES   REMARKS
CHICAGO-OHARE  CLEAR     61  48  62 CALM      30.03R
CHICAGO-MIDWAY CLEAR     62  52  69 CALM      30.03R
AURORA         CLEAR     50  47  89 CALM      30.04R
LANSING*       CLEAR     53  48  83 CALM      30.04R
WAUKEGAN       CLEAR     51  49  92 CALM      30.03R
DUPAGE AIRPORT CLEAR     52  48  86 CALM      30.03R
WHEELING       CLEAR     55  49  80 CALM      30.05R
NORTHERLY ISL    N/A     58  54  86 CALM        N/A
$$

LMZ740>746-180500-
SOUTHERN LAKE MICHIGAN

STATION/POSITION SKY/WX   TEMP    WIND        PRES    VSBY  WAVE
                          AIR SEA DIR/SP/G                  HT/PER
                          (F)     (DEG/KT/KT) (MB)    (MI)  (FT/S)
SOUTHERN BUOY              62 64  170/  4/  6 1016.7R         0
WAUKEGAN HARBOR            59     230/  4/  4   N/A
HARRISON CRIB              62     120/  6/  7   N/A
BURNHAM HARBOR             58      CALM  /  5   N/A
CALUMET HARBOR             61     110/  3/  4 1015.7R
MICHIGAN CITY              58      90/  5/  7   N/A
MICHIGAN CITY 6N           61 65  120/  6/  6   N/A           1
ST. JOSEPH                 62 68  100/  4/  6   N/A           0
$$

ILZ025>027-034>036-040-047-049-050-058-095>099-180500-
WEST-CENTRAL ILLINOIS

CITY           SKY/WX    TMP DP  RH WIND       PRES   REMARKS
QUINCY         CLEAR     57  55  93 E5        30.01R
GALESBURG*     CLEAR     49  47  93 CALM      30.02S
MACOMB*        CLEAR     49  48  98 CALM      30.04R
$$

ILZ028>032-037-038-041>044-048-051>054-059>061-180500-
CENTRAL ILLINOIS

CITY           SKY/WX    TMP DP  RH WIND       PRES   REMARKS
DECATUR        MOCLDY    54  52  93 CALM      30.03S
PEORIA         CLEAR     56  52  86 NE3       30.03R FOG
SPRINGFIELD    CLEAR     53  50  89 NE3       30.02R
TAYLORVILLE    NOT AVBL
$$

ILZ033-039-045-046-055>057-062-063-180500-
EAST-CENTRAL ILLINOIS

CITY           SKY/WX    TMP DP  RH WIND       PRES   REMARKS
CHAMPAIGN      MOCLDY    54  51  90 W6        30.04R
MATTOON        CLOUDY    57  53  86 CALM      30.02R
$$

ILZ079-100>102-180500-
SOUTHWEST ILLINOIS

CITY           SKY/WX    TMP DP  RH WIND       PRES   REMARKS
BELLEVILLE     CLOUDY    61  59  92 NW1       29.99S
CAHOKIA*       CLOUDY    63  57  81 NE3       30.00R
SPARTA*        CLOUDY    61  59  93 CALM      30.01R
$$

ILZ064>066-069>071-074>076-080>082-084>086-088>090-092>094-180500-
SOUTH-CENTRAL ILLINOIS

CITY           SKY/WX    TMP DP  RH WIND       PRES   REMARKS
CARBONDALE     CLOUDY    62  59  90 CALM      30.00R
MARION         CLOUDY    64  61  88 CALM      30.00R
MT. VERNON     CLOUDY    61  54  77 NE5       30.01R
SALEM*         CLOUDY    62  58  86 NE3       30.01S
$$

ILZ067-068-072-073-078-083-087-091-180500-
SOUTHEAST ILLINOIS

CITY           SKY/WX    TMP DP  RH WIND       PRES   REMARKS
LAWRENCEVILLE  CLOUDY    60  56  86 NE5       30.02R
ROBINSON*      FOG       53  52  99 CALM      30.03S VSB 1/2
$$

ABBREVIATIONS USED IN REMARKS
   TC - TEMPERATURE IN CELSIUS
  WCI - WIND CHILL INDEX
   HX - HEAT INDEX
  VSB - VISIBILITY
$$




USA.gov is the U.S. government's official web portal to all federal, state and local government web resources and services.